Location: Branche des Alpilles
(43.6087°N, 4.6976°E)
Time: 07:56:38
(UTC+00:00)

FENGYUN 1C DEB - Pass Details

Date: 28 June 2021
Orbit: 782 x 878 km, 99.7° (Epoch: 28 July)

Event Time Altitude Azimuth Distance (km) Brightness Sun altitude
Exits shadow 01:23:30 27° 162° (SSE) 1,496 ? -19.4°
Maximum altitude 01:26:27 88° 75° (ENE) 800 ? -19.1°
Drops below altitude 10° 01:31:38 10° 345° (NNW) 2,354 ? -18.7°
Sets 01:33:57 0° 346° (NNW) 3,282 ? -18.6°
